| time (UTC) | temp C | wind direction | speed KPH | gust KPH | rain 1hr cm | rain 24hr cm | rain mn cm | humidity % | barometer mb |
| 20260903123031 | 15 | 157 | 0.0 | 0.0 | 0.00 | 0.18 | 0.18 | 84 | 1018.6 |
| 20260903122029 | 15 | 157 | 0.0 | 0.0 | 0.00 | 0.18 | 0.18 | 85 | 1018.6 |
| 20260903121031 | 15 | 157 | 0.0 | 0.0 | 0.00 | 0.18 | 0.18 | 85 | 1018.7 |
| 20260903120029 | 15 | 157 | 0.0 | 0.0 | 0.00 | 0.18 | 0.18 | 85 | 1018.9 |
| 20260903115930 | 15 | 157 | 0.0 | 0.0 | 0.00 | 0.18 | 0.18 | 86 | 1018.9 |
| 20260903114930 | 15 | 157 | 0.0 | 1.6 | 0.00 | 0.18 | 0.18 | 86 | 1019.0 |
| 20260903113930 | 15 | 157 | 0.0 | 0.0 | 0.00 | 0.18 | 0.18 | 85 | 1018.8 |
| 20260903112931 | 14 | 157 | 0.0 | 0.0 | 0.00 | 0.18 | 0.18 | 85 | 1018.9 |
| 20260903112030 | 14 | 157 | 0.0 | 0.0 | 0.00 | 0.18 | 0.18 | 86 | 1019.0 |
| 20260903111047 | 14 | 157 | 0.0 | 0.0 | 0.00 | 0.18 | 0.18 | 86 | 1019.1 |
| 20260903110129 | 14 | 157 | 0.0 | 0.0 | 0.00 | 0.18 | 0.18 | 85 | 1019.1 |
| 20260903110030 | 14 | 157 | 0.0 | 0.0 | 0.00 | 0.18 | 0.18 | 86 | 1019.1 |
| 20260903105031 | 14 | 157 | 0.0 | 0.0 | 0.00 | 0.18 | 0.18 | 85 | 1018.9 |
| 20260903104031 | 14 | 157 | 0.0 | 0.0 | 0.00 | 0.18 | 0.18 | 86 | 1018.9 |
| 20260903103031 | 14 | 157 | 0.0 | 0.0 | 0.00 | 0.18 | 0.18 | 86 | 1018.9 |
| 20260903102128 | 14 | 157 | 0.0 | 0.0 | 0.03 | 0.18 | 0.18 | 86 | 1018.8 |
| 20260903100030 | 14 | 157 | 0.0 | 0.0 | 0.03 | 0.18 | 0.18 | 86 | 1018.8 |
| 20260903094031 | 14 | 157 | 0.0 | 0.0 | 0.05 | 0.18 | 0.18 | 87 | 1018.8 |
| 20260903093030 | 14 | 157 | 0.0 | 0.0 | 0.05 | 0.18 | 0.18 | 87 | 1018.9 |
| 20260903092128 | 14 | 202 | 0.0 | 0.0 | 0.03 | 0.15 | 0.15 | 86 | 1019.1 |
| 20260903091131 | 14 | 157 | 0.0 | 0.0 | 0.03 | 0.15 | 0.15 | 87 | 1019.2 |
| 20260903090148 | 15 | 157 | 0.0 | 1.6 | 0.03 | 0.15 | 0.15 | 87 | 1019.2 |
| 20260903085130 | 15 | 157 | 0.0 | 0.0 | 0.03 | 0.15 | 0.15 | 87 | 1019.3 |
| 20260903085030 | 15 | 157 | 0.0 | 0.0 | 0.03 | 0.15 | 0.15 | 86 | 1019.4 |
| 20260903084030 | 15 | 157 | 0.0 | 0.0 | 0.00 | 0.13 | 0.13 | 87 | 1019.3 |
| 20260903083031 | 15 | 157 | 0.0 | 0.0 | 0.00 | 0.13 | 0.13 | 87 | 1019.5 |
| 20260903081932 | 15 | 157 | 0.0 | 0.0 | 0.00 | 0.13 | 0.13 | 86 | 1019.3 |
| 20260903080929 | 15 | 157 | 0.0 | 0.0 | 0.00 | 0.13 | 0.13 | 86 | 1019.4 |
| 20260903075930 | 15 | 157 | 0.0 | 0.0 | 0.00 | 0.13 | 0.13 | 88 | 1019.3 |
| 20260903074929 | 15 | 202 | 0.0 | 0.0 | 0.00 | 0.13 | 0.13 | 88 | 1019.6 |
| 20260903073030 | 15 | 202 | 0.0 | 0.0 | 0.03 | 0.13 | 0.13 | 88 | 1019.6 |
| 20260903072928 | 15 | 202 | 0.0 | 0.0 | 0.03 | 0.13 | 0.13 | 88 | 1019.7 |
| 20260903072830 | 15 | 202 | 0.0 | 0.0 | 0.03 | 0.13 | 0.13 | 88 | 1019.8 |
| 20260903071844 | 15 | 180 | 0.0 | 0.0 | 0.05 | 0.13 | 0.13 | 88 | 1019.8 |
| 20260903070930 | 15 | 180 | 0.0 | 1.6 | 0.08 | 0.13 | 0.13 | 88 | 1019.7 |
| 20260903064931 | 15 | 225 | 0.0 | 0.0 | 0.13 | 0.13 | 0.13 | 89 | 1019.5 |
| 20260903064846 | 15 | 225 | 0.0 | 0.0 | 0.13 | 0.13 | 0.13 | 88 | 1019.4 |
| 20260903063829 | 15 | 222 | 1.6 | 3.2 | 0.10 | 0.10 | 0.10 | 89 | 1019.8 |
| 20260903062831 | 15 | 180 | 0.0 | 0.0 | 0.10 | 0.10 | 0.08 | 89 | 1019.9 |
| 20260903060830 | 15 | 202 | 0.0 | 0.0 | 0.03 | 0.03 | 0.03 | 90 | 1021.0 |
| 20260903055929 | 15 | 202 | 0.0 | 0.0 | 0.00 | 0.00 | 0.00 | 90 | 1021.1 |
| 20260903054929 | 15 | 202 | 0.0 | 0.0 | 0.00 | 0.00 | 0.00 | 90 | 1021.1 |
| 20260903053931 | 15 | 202 | 0.0 | 0.0 | 0.00 | 0.00 | 0.00 | 90 | 1021.5 |
| 20260903053029 | 15 | 202 | 0.0 | 0.0 | 0.00 | 0.00 | 0.00 | 89 | 1021.6 |
| 20260903052031 | 15 | 202 | 0.0 | 0.0 | 0.00 | 0.00 | 0.00 | 90 | 1021.7 |
| 20260903051048 | 15 | 202 | 0.0 | 0.0 | 0.00 | 0.00 | 0.00 | 90 | 1021.6 |
| 20260903050047 | 15 | 202 | 0.0 | 0.0 | 0.00 | 0.00 | 0.00 | 90 | 1021.4 |
| 20260903045129 | 15 | 202 | 0.0 | 0.0 | 0.00 | 0.00 | 0.00 | 90 | 1021.3 |
| 20260903043129 | 15 | 202 | 0.0 | 0.0 | 0.00 | 0.00 | 0.00 | 90 | 1021.7 |
| 20260903042228 | 15 | 202 | 0.0 | 0.0 | 0.00 | 0.00 | 0.00 | 90 | 1021.7 |
| 20260903041230 | 15 | 202 | 0.0 | 0.0 | 0.00 | 0.00 | 0.00 | 90 | 1021.5 |
| 20260903040230 | 15 | 202 | 0.0 | 0.0 | 0.00 | 0.00 | 0.00 | 90 | 1021.8 |
| 20260903035234 | 15 | 202 | 0.0 | 0.0 | 0.00 | 0.00 | 0.00 | 90 | 1021.8 |
| 20260903035135 | 15 | 202 | 0.0 | 0.0 | 0.00 | 0.00 | 0.00 | 89 | 1021.9 |
| 20260903032134 | 16 | 202 | 0.0 | 0.0 | 0.00 | 0.00 | 0.00 | 89 | 1022.0 |
| 20260903031152 | 16 | 202 | 0.0 | 0.0 | 0.00 | 0.00 | 0.00 | 87 | 1022.3 |
| 20260903030133 | 16 | 202 | 0.0 | 0.0 | 0.00 | 0.00 | 0.00 | 88 | 1022.4 |
| 20260903024150 | 16 | 202 | 0.0 | 0.0 | 0.00 | 0.00 | 0.00 | 86 | 1022.5 |
| 20260903022136 | 16 | 202 | 0.0 | 0.0 | 0.00 | 0.00 | 0.00 | 86 | 1022.6 |
| 20260903021134 | 16 | 202 | 0.0 | 0.0 | 0.00 | 0.00 | 0.00 | 85 | 1022.8 |
| 20260903021035 | 16 | 202 | 0.0 | 0.0 | 0.00 | 0.00 | 0.00 | 85 | 1022.8 |
| 20260903020134 | 16 | 202 | 0.0 | 0.0 | 0.00 | 0.00 | 0.00 | 85 | 1023.0 |
| 20260903015152 | 16 | 202 | 0.0 | 0.0 | 0.00 | 0.00 | 0.00 | 83 | 1023.1 |
| 20260903014235 | 16 | 202 | 0.0 | 0.0 | 0.00 | 0.00 | 0.00 | 82 | 1022.9 |
| 20260903012236 | 16 | 202 | 0.0 | 0.0 | 0.00 | 0.00 | 0.00 | 82 | 1023.1 |
| 20260903011334 | 17 | 202 | 1.6 | 3.2 | 0.00 | 0.00 | 0.00 | 82 | 1023.2 |
| 20260903011250 | 17 | 209 | 3.2 | 4.8 | 0.00 | 0.00 | 0.00 | 82 | 1023.2 |
| 20260903011133 | 17 | 206 | 1.6 | 3.2 | 0.00 | 0.00 | 0.00 | 82 | 1023.1 |
| 20260903010136 | 17 | 157 | 0.0 | 0.0 | 0.00 | 0.00 | 0.00 | 82 | 1022.9 |
| 20260903010037 | 17 | 157 | 0.0 | 1.6 | 0.00 | 0.00 | 0.00 | 81 | 1022.9 |
| 20260903005034 | 17 | 144 | 3.2 | 8.0 | 0.00 | 0.00 | 0.00 | 82 | 1022.4 |
| 20260903004035 | 16 | 137 | 4.8 | 11.3 | 0.00 | 0.00 | 0.00 | 84 | 1022.4 |
| 20260903003038 | 16 | 135 | 0.0 | 0.0 | 0.00 | 0.00 | 0.00 | 87 | 1022.4 |
| 20260903002036 | 17 | 157 | 0.0 | 1.6 | 0.00 | 0.00 | 0.00 | 86 | 1022.4 |
| 20260903001036 | 17 | 180 | 0.0 | 3.2 | 0.00 | 0.00 | 0.00 | 86 | 1022.6 |
| 20260902235035 | 17 | 157 | 0.0 | 0.0 | 0.00 | 0.00 | 0.00 | 86 | 1022.8 |
| 20260902233037 | 17 | 157 | 0.0 | 0.0 | 0.00 | 0.00 | 0.00 | 85 | 1023.1 |
| 20260902232034 | 17 | 157 | 0.0 | 0.0 | 0.00 | 0.00 | 0.00 | 84 | 1023.3 |
| 20260902231051 | 17 | 157 | 0.0 | 0.0 | 0.00 | 0.03 | 0.00 | 83 | 1023.6 |
| 20260902230134 | 18 | 157 | 0.0 | 0.0 | 0.00 | 0.03 | 0.00 | 84 | 1023.8 |
| 20260902225150 | 18 | 157 | 0.0 | 0.0 | 0.00 | 0.03 | 0.00 | 84 | 1023.8 |
| 20260902224234 | 18 | 157 | 0.0 | 0.0 | 0.00 | 0.03 | 0.00 | 83 | 1023.9 |
| 20260902223235 | 18 | 157 | 0.0 | 0.0 | 0.00 | 0.03 | 0.00 | 82 | 1023.8 |
| 20260902222235 | 18 | 157 | 0.0 | 1.6 | 0.00 | 0.03 | 0.00 | 81 | 1023.8 |
| 20260902221332 | 18 | 157 | 0.0 | 1.6 | 0.00 | 0.03 | 0.00 | 80 | 1023.9 |
| 20260902220336 | 18 | 157 | 1.6 | 3.2 | 0.00 | 0.03 | 0.00 | 79 | 1024.0 |
| 20260902215335 | 18 | 157 | 0.0 | 4.8 | 0.00 | 0.03 | 0.00 | 80 | 1023.8 |
| 20260902214335 | 18 | 143 | 3.2 | 8.0 | 0.00 | 0.03 | 0.00 | 80 | 1023.9 |
| 20260902213334 | 18 | 135 | 3.2 | 4.8 | 0.00 | 0.03 | 0.00 | 80 | 1023.9 |
| 20260902213251 | 18 | 135 | 4.8 | 9.7 | 0.00 | 0.03 | 0.00 | 80 | 1023.9 |
| 20260902212235 | 19 | 135 | 0.0 | 1.6 | 0.00 | 0.03 | 0.00 | 79 | 1023.7 |
| 20260902211235 | 19 | 146 | 3.2 | 6.4 | 0.00 | 0.05 | 0.00 | 79 | 1023.7 |
| 20260902205233 | 19 | 135 | 0.0 | 0.0 | 0.00 | 0.05 | 0.00 | 81 | 1023.7 |
| 20260902204233 | 19 | 157 | 0.0 | 3.2 | 0.00 | 0.05 | 0.00 | 80 | 1023.5 |
| 20260902203236 | 20 | 157 | 0.0 | 8.0 | 0.00 | 0.05 | 0.00 | 80 | 1023.8 |
| 20260902201233 | 19 | 168 | 1.6 | 6.4 | 0.00 | 0.08 | 0.00 | 80 | 1024.0 |
| 20260902201135 | 19 | 135 | 0.0 | 0.0 | 0.00 | 0.08 | 0.00 | 80 | 1023.9 |
| 20260902200136 | 20 | 157 | 0.0 | 4.8 | 0.00 | 0.10 | 0.00 | 82 | 1023.8 |
| 20260902195233 | 19 | 135 | 1.6 | 3.2 | 0.00 | 0.10 | 0.00 | 82 | 1024.1 |
| 20260902194135 | 19 | 112 | 0.0 | 0.0 | 0.00 | 0.15 | 0.00 | 82 | 1024.0 |
| 20260902193134 | 20 | 130 | 6.4 | 11.3 | 0.00 | 0.15 | 0.00 | 83 | 1024.1 |
| 20260902192133 | 19 | 157 | 0.0 | 1.6 | 0.00 | 0.20 | 0.00 | 83 | 1024.3 |
| 20260902191133 | 19 | 144 | 4.8 | 6.4 | 0.00 | 0.23 | 0.00 | 84 | 1024.3 |
| 20260902190151 | 19 | 157 | 1.6 | 4.8 | 0.00 | 0.23 | 0.00 | 84 | 1024.6 |
| 20260902185233 | 19 | 180 | 0.0 | 0.0 | 0.00 | 0.23 | 0.00 | 82 | 1024.8 |
| 20260902184233 | 19 | 135 | 0.0 | 0.0 | 0.00 | 0.23 | 0.00 | 82 | 1024.6 |
| 20260902184133 | 19 | 135 | 0.0 | 1.6 | 0.00 | 0.23 | 0.00 | 83 | 1024.6 |
| 20260902183232 | 19 | 157 | 0.0 | 0.0 | 0.00 | 0.25 | 0.00 | 82 | 1024.6 |
| 20260902182234 | 19 | 157 | 0.0 | 3.2 | 0.00 | 0.25 | 0.00 | 83 | 1024.5 |
| 20260902181236 | 19 | 157 | 0.0 | 1.6 | 0.00 | 0.25 | 0.00 | 83 | 1024.5 |
| 20260902180333 | 18 | 157 | 3.2 | 8.0 | 0.00 | 0.25 | 0.00 | 83 | 1024.4 |
| 20260902174333 | 18 | 157 | 1.6 | 3.2 | 0.00 | 0.28 | 0.00 | 84 | 1024.8 |
| 20260902172349 | 18 | 157 | 1.6 | 4.8 | 0.00 | 0.28 | 0.00 | 85 | 1025.0 |
| 20260902171436 | 18 | 157 | 0.0 | 1.6 | 0.00 | 0.30 | 0.00 | 85 | 1024.9 |
| 20260902170533 | 18 | 157 | 0.0 | 1.6 | 0.00 | 0.30 | 0.00 | 84 | 1024.8 |
| 20260902170450 | 18 | 157 | 4.8 | 6.4 | 0.00 | 0.30 | 0.00 | 84 | 1024.8 |
| 20260902165535 | 18 | 157 | 1.6 | 3.2 | 0.00 | 0.30 | 0.00 | 84 | 1024.9 |
| 20260902164535 | 18 | 180 | 0.0 | 1.6 | 0.00 | 0.30 | 0.00 | 83 | 1025.1 |
| 20260902164433 | 18 | 180 | 3.2 | 4.8 | 0.00 | 0.30 | 0.00 | 84 | 1025.1 |
| 20260902163433 | 18 | 157 | 0.0 | 0.0 | 0.00 | 0.30 | 0.00 | 84 | 1025.0 |
| 20260902162335 | 18 | 180 | 0.0 | 3.2 | 0.00 | 0.33 | 0.00 | 85 | 1025.0 |
| 20260902161434 | 18 | 157 | 0.0 | 0.0 | 0.00 | 0.33 | 0.00 | 87 | 1025.2 |
| 20260902160533 | 18 | 157 | 1.6 | 4.8 | 0.00 | 0.33 | 0.00 | 86 | 1025.5 |
| 20260902155535 | 18 | 157 | 0.0 | 1.6 | 0.00 | 0.36 | 0.00 | 87 | 1025.8 |
| 20260902154451 | 18 | 157 | 1.6 | 4.8 | 0.00 | 0.36 | 0.00 | 87 | 1025.6 |
| 20260902153534 | 18 | 157 | 0.0 | 0.0 | 0.00 | 0.36 | 0.00 | 88 | 1025.8 |
| 20260902152535 | 18 | 157 | 1.6 | 8.0 | 0.00 | 0.36 | 0.00 | 88 | 1025.9 |
| 20260902151633 | 18 | 180 | 0.0 | 0.0 | 0.00 | 0.36 | 0.00 | 89 | 1026.1 |
| 20260902151537 | 18 | 180 | 0.0 | 0.0 | 0.00 | 0.36 | 0.00 | 88 | 1026.0 |
| 20260902150534 | 17 | 135 | 0.0 | 0.0 | 0.00 | 0.36 | 0.00 | 89 | 1025.9 |
| 20260902145533 | 17 | 180 | 0.0 | 0.0 | 0.00 | 0.36 | 0.00 | 89 | 1025.8 |
| 20260902144536 | 17 | 157 | 4.8 | 8.0 | 0.00 | 0.36 | 0.00 | 90 | 1025.9 |
| 20260902143536 | 18 | 135 | 0.0 | 1.6 | 0.00 | 0.36 | 0.00 | 88 | 1026.0 |
| 20260902142534 | 17 | 157 | 0.0 | 0.0 | 0.00 | 0.36 | 0.00 | 88 | 1025.9 |
| 20260902141536 | 17 | 157 | 1.6 | 3.2 | 0.00 | 0.36 | 0.00 | 87 | 1025.8 |
| 20260902135534 | 17 | 174 | 1.6 | 4.8 | 0.00 | 0.36 | 0.00 | 86 | 1025.6 |
| 20260902134536 | 16 | 157 | 0.0 | 0.0 | 0.00 | 0.36 | 0.00 | 85 | 1025.6 |
| 20260902132649 | 16 | 166 | 3.2 | 6.4 | 0.00 | 0.36 | 0.00 | 84 | 1025.2 |
| 20260902131633 | 16 | 161 | 6.4 | 12.9 | 0.00 | 0.36 | 0.00 | 83 | 1025.3 |
| 20260902130633 | 16 | 157 | 1.6 | 4.8 | 0.00 | 0.36 | 0.00 | 84 | 1025.5 |